Other Public Products
Issued by NWS Charleston, SC

Current Version | Previous Version | Graphics & Text | Print | Product List | Glossary On
Versions: 1 2 3 4 5 6 7 8 9 10 11 12 13 14 15 16 17 18 19 20 21 22 23 24 25 26 27 28 29 30 31 32 33 34 35 36 37 38 39 40 41 42 43 44 45 46 47 48 49 50
000
FPUS82 KCHS 201512
OPUCHS

TEST...KCHS/KSAV Gateway Observations...TEST
National Weather Service Charleston SC
1100 AM EDT THU JUL 20 2017

NOTE: "fair" indicates few or no clouds below 12,000 feet with no
significant weather and/or obstructions to visibility.

SCZ050-WAZ558-NCZ071-TXZ119-213-PAZ071-DCZ001-FLZ074-172-MI076-
NYZ176-178-MAZ016-IL014-TNZ027-NJZ106-GAZ044-MD014-201600-

...Gateway Observations for Charleston International...

CITY           SKY/WX    TMP DP  RH WIND       PRES   REMARKS
Chas Airport   MOSUNNY   86  74  67 VRB5      30.09S HX  94
Seattle        PTSUNNY   60  55  83 S13       30.11R
Charlotte      MOSUNNY   87  72  60 CALM      30.12R HX  93
Dallas DFW     MOSUNNY   90  74  59 SW12      30.11S HX  99
Dallas Love    MOSUNNY   89  73  59 SW9       30.12F HX  97
Philladelphia  PTSUNNY   89  71  55 SW10      29.99F HX  95
Wash National  PTSUNNY   92  72  51 NW8       30.02F HX  99
Baltimore      PTSUNNY   92  72  51 W8        30.01S HX  99
Miami          PTSUNNY   88  74  63 CALM      30.11S HX  96
Detroit        CLOUDY    80  68  66 W15       30.02R
Newark         PTSUNNY   92  69  47 NW7       29.97F HX  97
Laguardia      MOSUNNY   89  73  59 VRB3      29.96F HX  97
J F K          PTSUNNY   89  72  56 S6        29.98S HX  96
Boston Logan   PTSUNNY   87  66  49 W8        29.93F
Ft. Lauderdale PTSUNNY   89  76  65 W5        30.10S HX 100
Chicago O`Hare CLOUDY    74  69  85 SW13G24   29.97F
Chicago Midway CLOUDY    72  70  93 S13G22    29.99F
Houston Bush   MOSUNNY   88  77  69 W7        30.14S HX 100
Houston Hobby  MOSUNNY   89  76  65 SW6       30.13S HX 100
Nashville      MOSUNNY   89  73  59 NW3       30.15F HX  97
Atlanta        MOSUNNY   87  70  56 NW9       30.14R HX  92

$$

GAZ044-118-TXZ119-213-NCZ071-DCZ001-MDZ014-506-PAZ021-071-NJZ106-
NYZ176-178-MAZ106-OHZ011-021-055-MIZ076-KYZ091-ILZ014-INZ047-
MNZ060-ONZ431-201600-

...Gateway Observations for Savannah International...

CITY           SKY/WX    TMP DP  RH WIND       PRES   REMARKS
Savannah Arpt  MOSUNNY   87  76  69 W3        30.10S HX  97
Atlanta        MOSUNNY   87  70  56 NW9       30.14R HX  92
Charlotte      MOSUNNY   87  72  60 CALM      30.12R HX  93
Dallas DFW     MOSUNNY   90  74  59 SW12      30.11S HX  99
Houston Bush   MOSUNNY   88  77  69 W7        30.14S HX 100
Wash National  PTSUNNY   92  72  51 NW8       30.02F HX  99
Wash Dulles    PTSUNNY   88  71  57 NW5       30.04F HX  94
Baltimore      PTSUNNY   92  72  51 W8        30.01S HX  99
Philadelphia   PTSUNNY   89  71  55 SW10      29.99F HX  95
Newark         PTSUNNY   92  69  47 NW7       29.97F HX  97
Laguardia      MOSUNNY   89  73  59 VRB3      29.96F HX  97
J F K          PTSUNNY   89  72  56 S6        29.98S HX  96
Boston         PTSUNNY   87  66  49 W8        29.93F
Pittsburg      CLOUDY    83  68  60 SW13      30.07F
Akron          PTSUNNY   85  71  63 W12       30.06S HX  90
Cleveland      MOSUNNY   87  74  64 W18       30.04R HX  95
Cincinnati     CLOUDY    81  73  76 CALM      30.14S
Columbus       MOSUNNY   83  74  73 SW12      30.08F
Detroit        CLOUDY    80  68  66 W15       30.02R
Chicago O`Hare CLOUDY    74  69  85 SW13G24   29.97F
Minneapolis    PTSUNNY   75  69  81 CALM      30.02R
Indianapolis   CLOUDY    80  74  81 SW8       30.10S
Toronto Canada TSTM      64  59  82 NW14G22   30.03  VSB 3/4

$$




USA.gov is the U.S. government's official web portal to all federal, state and local government web resources and services.